Flag for United Kingdom Weather past 2 weeks in Swansea, Wales, United Kingdom

Now
58 °F

Cool.


Feels Like: 53 °F
Forecast: 47 / 57 °F
Wind: 26 mph from West

Location: Mumbles

Current Time: Oct 20, 2014 at 10:57:55 AM

Latest Report: Oct 20, 2014 at 10:00 AM


Visibility: N/A

Pressure: 30.03 "Hg

Humidity: 80%

Dew point: 52 °F

Location of SwanseaLocation

Historic Weather in Swansea — Graph

°F

Swansea temperature yesterday

Maximum temperature yesterday: 61 °F (at 12:00 PM)
Minimum temperature yesterday: 58 °F (at 11:00 PM)
Average temperature yesterday: 60 °F

Past Weeks' High & Low Weather Summary

 TemperatureHumidityPressure
High63 °F (Oct 18, 3:00 PM)96% (Oct 15, 3:00 PM)30.14 "Hg (Oct 15, 3:00 PM)
Low46 °F (Oct 7, 5:00 AM)53% (Oct 6, 1:00 PM)29.21 "Hg (Oct 8, 2:00 PM)
Average57 °F82%29.66 "Hg
* Reported Oct 5 9:00 AM — Oct 20 9:00 AM, Swansea, Weather by CustomWeather, © 2014

Note: Actual official high and low records may vary slightly from our data, if they occured in-between our weather recording intervals... More about our weather records

Advertising

Swansea weather history for previous 24 hours

 ConditionsComfort  
Time TempWeatherWind HumidityBarometerVisibility
9:00 AM
Oct 20
57 °FCool.23 mph85%30.03 "HgN/A
8:00 AM58 °FCool.24 mph80%30.02 "HgN/A
7:00 AM58 °FCool.23 mph81%30.02 "HgN/A
6:00 AM56 °FCool.14 mph86%30.03 "HgN/A
4:00 AM58 °FCool.21 mph82%30.03 "HgN/A
3:00 AM57 °FCool.20 mph81%30.04 "HgN/A
2:00 AM57 °FCool.20 mph82%30.03 "HgN/A
1:00 AM58 °FCool.23 mph81%30.03 "HgN/A
12:00 AM58 °FCool.24 mph84%30.02 "HgN/A
11:00 PM
Oct 19
58 °FCool.25 mph83%30.01 "HgN/A
10:00 PM59 °FCool.26 mph87%30.00 "HgN/A
9:00 PM59 °FCool.35 mph86%29.98 "HgN/A
8:00 PM59 °FCool.35 mph86%29.95 "HgN/A
7:00 PM59 °FCool.36 mph81%29.93 "HgN/A
6:00 PM59 °FCool.31 mph82%29.93 "HgN/A
5:00 PM59 °FCool.35 mph87%29.92 "HgN/A
4:00 PM60 °FCool.40 mph79%29.91 "HgN/A
3:00 PM61 °FCool.35 mph83%29.92 "HgN/A
2:00 PM60 °FCool.36 mph83%29.91 "HgN/A
1:00 PM61 °FCool.37 mph79%29.90 "HgN/A
12:00 PM61 °FCool.37 mph80%29.90 "HgN/A
11:00 AM61 °FCool.36 mph84%29.88 "HgN/A
10:00 AM60 °FCool.35 mph82%29.86 "HgN/A
Weather by CustomWeather, © 2014

See weather overviewHow to use our weather pages